Wetbulb
50.11 50.28 50.54 50.63 51.49 52.64 52.94 52.49 53.20 54.14 54.83 55.01 54.73 55.11 55.41 55.90 56.10 55.03 53.97 56.20 50.87 48.33 50.89 53.08 54.09 52.34 53.10 51.81 48.62 52.76 52.75 53.51 52.05 48.19 47.19 47.32 47.01 48.46 48.29 51.14 50.06 49.37 46.94 48.61 50.55 47.32 45.11 56.71 55.71 51.54 60.31 62.91 62.52 61.24
49.88 49.80 50.20 50.37 50.57 51.54 52.41 52.30 52.82 53.65 54.45 54.81 54.93 54.94 55.38 55.64 55.76 54.95 51.07 55.62 55.12 49.23 49.19 54.16 55.24 56.65 55.52 55.59 52.75 53.63 52.83 53.09 54.24 50.88 51.20 50.34 48.00 49.44 49.85 45.14 53.55 47.39 50.05 50.30 50.41 49.80 58.25 58.38 59.06 62.19 60.72 61.47 62.91 64.25
49.69 49.43 49.67 49.95 49.95 50.47 51.63 52.47 52.43 53.09 54.04 54.63 54.44 54.67 55.14 55.24 55.56 54.89 53.03 54.81 52.52 48.24 48.11 51.28 52.24 57.11 58.74 57.67 57.98 50.71 53.02 55.06 54.96 57.49 52.53 51.08 48.02 51.37 46.59 48.31 49.04 52.96 54.07 49.60 50.63 53.95 56.01 57.64 57.95 59.78 61.39 61.14 62.68 62.58
49.53 49.48 49.59 49.59 49.46 50.02 51.27 52.55 52.74 53.13 53.96 54.65 54.16 54.34 54.83 54.91 55.04 55.06 52.79 55.74 52.63 48.71 43.13 48.50 56.06 54.42 58.58 58.97 57.79 56.37 55.22 55.44 55.19 54.57 53.05 49.91 46.79 52.71 49.07 50.45 49.61 52.74 53.58 50.82 50.17 53.40 54.58 56.64 58.55 59.17 56.63 59.90 62.17 63.44
49.36 49.15 49.38 49.23 49.71 50.10 51.25 52.51 53.14 53.46 54.10 54.14 53.99 53.87 54.28 54.40 54.75 55.59 56.08 55.49 55.34 48.73 43.30 45.77 51.87 55.53 57.12 56.84 56.22 56.61 54.61 53.81 51.04 50.61 50.47 47.60 50.86 50.38 51.00 50.59 48.28 52.02 49.86 49.45 47.97 55.47 54.53 55.92 57.80 58.61 58.68 58.15 60.27 61.99
49.16 48.98 49.11 49.28 49.81 50.56 51.23 52.16 53.05 53.73 53.78 53.78 53.73 53.61 53.69 54.08 54.55 55.04 50.45 55.22 56.03 53.69 45.93 41.26 52.92 53.38 54.86 55.06 55.50 54.18 54.21 54.08 53.78 51.28 49.76 51.30 53.24 50.37 46.25 45.71 51.94 53.58 55.81 56.97 53.32 55.23 55.54 56.62 56.64 58.44 57.51 58.61 57.34 62.03
48.69 48.84 49.11 49.27 49.85 50.65 51.81 52.37 53.15 53.48 53.56 53.30 53.07 53.00 53.05 53.11 55.28 52.99 51.43 54.78 55.19 54.85 46.44 42.52 46.08 52.47 55.23 54.22 52.70 52.18 52.95 54.18 54.18 52.83 49.98 49.98 50.32 51.65 47.42 44.88 50.99 52.97 54.85 55.91 56.21 55.76 54.43 56.64 55.25 58.11 56.84 56.43 55.28 62.62
48.66 49.09 49.22 49.82 50.50 51.17 52.01 52.53 52.81 53.02 53.38 53.16 52.64 52.44 52.94 53.47 52.88 53.56 55.36 54.89 56.24 51.64 48.90 42.37 45.73 48.63 54.56 51.53 49.45 53.73 52.82 54.18 52.98 51.47 51.74 50.12 51.56 52.14 45.60 49.81 52.43 53.89 54.68 55.65 56.33 55.66 55.89 56.77 57.69 58.15 58.15 56.53 53.33 61.16
49.19 49.14 49.57 50.14 51.16 51.72 52.16 52.77 52.93 53.06 52.86 52.65 52.35 52.53 54.80 53.85 55.21 55.14 55.84 55.22 57.32 52.38 44.67 44.74 42.44 41.47 52.44 50.35 51.85 51.43 50.81 44.75 50.97 47.10 48.69 50.56 46.69 45.07 48.45 50.62 52.21 52.50 54.17 55.53 56.72 55.94 57.05 56.15 56.19 57.46 56.01 55.88 52.17 58.55
50.00 50.16 49.99 50.38 51.04 51.90 52.56 52.99 53.31 52.62 51.89 52.08 53.18 53.03 52.24 54.66 55.65 55.72 52.82 49.60 48.78 49.16 47.65 43.71 48.56 44.35 48.95 46.60 45.77 46.30 47.79 44.01 40.76 45.37 51.01 46.80 45.86 50.99 52.88 53.14 54.88 55.81 55.52 56.68 54.46 54.18 55.11 55.65 56.36 56.91 56.45 56.16 58.97 60.48
50.49 50.26 50.09 50.13 50.92 52.31 53.31 53.24 52.54 51.96 52.28 56.18 54.77 54.28 56.63 56.07 55.11 51.88 47.51 45.16 45.81 43.31 46.20 48.02 49.45 47.88 50.77 43.59 43.44 46.60 44.56 43.90 38.57 43.17 44.23 42.84 41.49 49.73 54.38 55.13 54.81 55.40 56.39 56.57 57.22 56.67 56.90 56.68 57.84 57.85 55.62 58.74 59.35 60.40
50.61 50.37 50.09 50.06 51.09 52.60 52.98 52.23 52.11 54.70 55.67 51.53 52.02 54.70 56.21 52.49 49.02 46.16 46.75 49.03 46.77 44.89 50.80 50.28 51.38 51.78 51.39 49.83 44.62 45.56 41.82 42.29 38.00 46.87 41.72 38.66 46.98 50.85 52.80 53.64 54.87 55.08 55.75 55.90 56.24 56.90 56.98 57.67 58.74 56.71 56.02 55.74 58.71 60.16
50.57 50.09 50.04 50.44 51.23 52.26 52.82 52.06 52.42 52.33 52.22 56.76 52.24 50.07 49.45 50.33 41.59 43.45 41.02 45.80 46.15 50.10 51.56 51.11 49.60 52.55 51.16 49.51 45.57 43.86 39.91 39.27 46.39 40.24 38.85 43.05 46.91 49.59 51.92 52.76 53.29 55.46 55.38 55.61 56.11 56.67 55.23 56.78 57.01 56.36 56.10 57.20 59.19 59.43
50.20 49.87 50.30 50.68 51.24 52.21 52.39 52.35 52.50 52.97 53.77 49.96 48.40 41.34 47.09 45.54 47.55 47.44 46.53 46.89 49.94 50.76 50.05 50.17 49.88 51.15 52.19 47.14 46.00 41.17 44.57 44.11 37.98 35.76 36.52 44.28 46.60 49.74 51.21 52.66 55.24 54.82 53.52 53.68 54.18 55.44 55.63 54.50 55.18 56.56 56.71 58.10 59.34 58.63
50.17 50.28 50.56 50.98 52.06 52.68 52.64 52.00 52.21 54.78 52.85 50.32 50.94 42.11 47.07 50.37 51.08 50.87 50.92 50.26 51.35 52.20 49.99 48.69 48.93 51.99 49.51 46.80 46.48 44.53 40.68 36.26 40.61 37.64 43.93 48.03 49.42 51.17 52.49 54.05 55.53 55.24 54.57 55.80 55.38 52.50 51.73 54.39 54.96 55.34 57.94 59.21 59.35 59.78
50.52 50.73 53.96 53.53 52.86 52.31 51.35 52.56 55.36 56.19 54.01 52.37 52.03 49.09 50.32 49.06 47.83 50.01 49.75 49.42 51.97 50.41 51.14 50.44 47.01 46.06 45.37 46.49 42.00 39.86 38.51 37.86 42.12 46.34 48.41 50.04 50.69 52.82 53.53 54.80 56.52 57.90 53.88 55.72 55.78 54.61 53.68 53.44 54.81 56.40 57.43 58.95 59.08 59.76
49.80 53.39 53.40 52.92 51.49 50.93 51.00 53.89 57.86 53.19 52.77 50.93 50.18 53.16 51.58 49.77 49.77 50.05 50.58 50.35 53.67 49.09 45.53 46.52 42.49 42.42 48.27 42.38 40.35 43.47 41.10 43.85 47.01 48.43 49.69 50.41 50.22 53.12 54.51 54.68 56.71 57.63 57.55 55.02 54.07 57.86 57.57 58.21 58.39 57.72 57.18 59.18 59.40 60.56
52.13 53.89 52.41 51.55 51.76 54.47 57.71 55.48 54.43 51.97 48.50 52.09 49.66 50.78 52.38 52.10 50.56 51.68 52.44 53.77 51.04 49.31 48.10 45.34 48.39 43.49 42.43 39.50 40.89 46.65 47.03 48.48 50.79 50.30 50.49 50.59 51.51 53.50 54.63 54.14 55.11 56.64 58.01 58.44 58.78 58.88 58.86 58.38 58.06 57.80 59.12 58.85 58.40 59.39
52.42 53.05 51.49 51.20 51.87 52.95 53.72 54.43 54.79 48.28 51.08 52.49 53.11 52.33 52.46 52.78 54.64 54.64 55.22 54.64 54.54 53.39 51.02 49.01 43.16 43.91 43.70 47.07 47.16 47.84 48.59 48.63 47.68 49.94 51.07 51.30 51.55 51.91 51.80 53.33 54.60 54.60 55.90 56.96 58.17 58.11 57.19 56.83 57.93 58.23 57.64 57.73 56.36 57.28
50.33 50.52 50.97 51.59 51.68 54.53 51.93 53.56 57.22 51.68 48.62 52.79 53.97 51.64 52.13 51.79 49.86 49.41 52.21 52.86 52.24 50.57 47.17 45.89 47.19 47.70 48.00 49.31 50.22 49.58 49.63 50.72 49.50 47.60 49.73 50.66 49.77 50.89 51.16 52.08 52.64 54.58 54.74 56.39 55.13 52.50 57.70 56.65 56.83 56.22 56.46 56.67 56.69 53.49
53.73 56.29 54.43 54.42 56.18 55.57 53.67 53.28 52.68 53.01 52.43 51.64 53.45 52.87 51.69 53.79 51.71 50.63 51.95 53.58 51.39 49.10 47.11 50.06 49.73 51.19 52.37 52.25 52.51 51.73 51.38 51.35 49.66 49.53 49.95 49.88 50.63 50.32 49.78 51.02 52.53 51.99 51.83 51.97 52.18 52.37 51.83 53.21 54.08 54.51 54.05 54.26 56.24 55.45
55.55 53.38 56.61 55.37 54.26 53.58 53.51 55.33 54.04 55.99 52.37 51.88 52.79 53.05 51.17 51.20 50.89 50.88 52.91 49.83 49.24 50.62 50.04 50.28 51.47 51.36 51.12 51.05 50.78 51.51 52.34 52.18 51.75 50.77 48.52 48.41 49.64 48.24 49.02 50.75 51.25 51.06 51.69 51.90 52.20 51.04 50.80 52.12 52.05 53.60 51.97 52.30 51.57 51.91
53.50 55.22 55.04 54.34 50.41 48.05 47.23 55.56 51.73 52.11 49.32 50.11 52.26 49.58 49.13 50.42 52.71 54.27 50.52 51.03 50.93 52.71 52.41 52.75 52.62 53.19 52.32 52.23 52.19 51.22 51.69 50.97 50.70 49.49 50.71 51.20 51.70 50.51 50.59 50.48 51.75 51.21 50.40 51.63 52.97 51.96 51.98 49.38 50.92 51.74 53.34 53.29 53.31 51.49
51.47 52.62 49.91 49.38 49.44 45.96 53.75 51.52 53.73 51.71 51.15 49.47 48.99 47.09 48.22 48.74 53.04 50.02 47.56 48.72 51.00 51.82 52.33 52.76 51.82 51.30 51.63 51.45 49.97 49.99 50.69 49.65 51.29 50.87 51.06 50.22 49.13 50.42 51.58 50.22 51.63 53.74 52.39 51.86 51.52 52.39 52.85 52.46 49.21 51.84 51.38 52.40 51.87 52.19
45.62 45.16 47.09 38.63 50.95 48.46 47.98 49.47 49.91 49.02 47.23 49.09 47.72 48.11 48.55 51.80 48.56 46.46 46.01 48.77 50.07 50.73 51.05 52.19 52.09 51.85 49.25 49.99 51.27 51.82 53.05 51.10 50.77 50.96 52.48 53.95 53.81 53.67 52.26 52.87 51.34 53.00 52.33 51.78 50.77 52.01 51.68 53.18 52.13 51.95 51.64 52.01 52.05 51.62
40.37 47.92 42.77 50.02 49.91 48.69 48.90 46.56 47.68 46.61 48.33 47.55 47.83 48.46 51.89 49.48 46.13 44.59 46.71 50.10 50.19 50.75 50.84 51.30 50.73 50.19 49.92 51.05 50.58 51.07 52.78 53.64 53.74 50.58 52.91 53.06 52.84 52.61 50.93 51.21 50.29 52.48 54.83 53.69 53.53 51.12 51.94 52.52 52.12 51.49 52.33 51.37 47.57 52.29
41.38 47.37 52.54 55.17 53.45 52.30 51.12 52.74 51.11 49.64 46.76 46.77 48.72 48.40 49.01 44.45 43.51 46.48 49.10 52.03 51.11 52.46 53.55 53.50 52.81 51.48 50.97 51.41 52.85 53.36 53.52 54.34 53.99 53.72 54.84 54.41 54.26 54.26 52.90 51.59 51.05 52.73 53.75 54.55 54.75 52.91 52.28 52.05 52.68 52.79 52.00 51.04 52.78 52.71
50.04 52.17 49.49 52.64 52.85 53.29 49.85 49.37 49.28 47.52 49.52 52.21 50.60 46.64 44.84 44.87 45.87 51.71 53.46 53.57 53.92 54.08 53.73 53.76 55.08 53.88 52.94 53.19 53.15 53.44 53.26 53.98 54.08 53.64 53.28 53.93 53.80 53.60 54.64 55.44 55.15 43.05 53.34 54.07 54.05 53.44 52.60 52.72 51.83 51.51 51.99 51.93 52.64 50.93
50.33 52.72 52.66 50.18 51.14 51.17 50.78 49.80 49.49 51.81 53.47 50.32 48.83 48.27 49.24 52.56 53.86 53.75 53.72 53.38 54.15 53.52 52.54 52.23 53.39 54.19 53.88 54.50 54.69 54.58 54.65 53.14 50.21 50.02 49.28 49.56 50.90 52.14 53.75 54.55 55.37 53.86 53.72 53.62 40.06 47.03 50.96 50.94 51.22 51.21 51.44 51.55 52.08 52.49
50.88 53.18 50.22 50.49 49.97 48.74 51.35 53.56 53.17 54.41 54.90 53.74 54.93 52.92 51.96 53.82 55.50 55.65 53.27 53.03 52.84 52.46 52.83 53.03 53.14 52.94 52.26 52.42 52.05 52.46 53.92 54.66 54.47 51.97 50.08 49.21 49.64 51.94 52.64 53.13 53.17 53.58 53.61 53.31 52.23 51.85 44.67 48.87 47.41 50.64 49.74 51.11 51.21 51.17
52.81 52.15 50.32 50.29 50.78 53.75 54.91 55.64 56.45 55.32 54.55 53.80 54.98 53.48 53.45 54.26 55.10 55.95 53.71 53.45 53.66 53.52 52.78 52.29 52.46 53.08 52.95 52.19 53.06 51.10 51.25 53.83 53.99 53.26 52.68 52.92 53.00 53.13 52.91 53.08 53.34 53.86 53.46 52.66 52.92 52.16 51.64 50.96 51.06 50.48 50.06 50.21 50.04 48.92
51.91 50.61 49.56 47.82 49.54 54.82 56.12 54.28 53.71 53.06 52.38 52.68 52.80 54.49 54.40 52.32 49.26 54.44 55.39 53.76 52.50 52.01 51.44 52.01 52.74 52.30 53.98 55.18 55.12 55.14 45.69 54.42 54.66 54.45 53.43 53.93 53.60 53.87 54.00 53.60 53.31 53.24 52.61 52.03 51.75 51.87 50.49 50.37 50.26 50.53 50.23 49.06 50.69 50.04
51.78 51.51 51.72 50.38 50.44 50.88 53.84 53.48 51.47 50.64 51.82 51.38 51.80 53.31 53.69 53.74 51.00 54.35 57.35 56.60 54.53 53.18 53.47 53.72 54.61 55.48 56.01 55.24 54.95 53.88 50.68 55.94 50.81 44.68 44.36 44.32 45.00 47.34 52.47 54.32 53.75 53.10 52.27 52.38 52.14 51.73 50.39 49.88 50.59 50.45 50.42 50.37 49.75 49.59
MSLP
1024.15 1023.86 1023.70 1023.43 1023.11 1022.73 1022.46 1022.18 1021.87 1021.35 1020.85 1020.43 1019.93 1019.52 1019.09 1018.71 1018.22 1017.98 1017.32 1017.16 1017.32 1015.99 1013.41 1012.20 1011.04 1009.98 1008.76 1008.42 1007.96 1007.03 1006.92 1005.76 1005.96 1006.08 1006.06 1005.34 1004.23 1003.22 1002.41 1001.78 1001.44 1001.92 1002.14 1002.10 1001.30 1000.42 998.47 998.60 997.85 997.46 998.14 997.58 996.48 995.46
1024.02 1023.56 1023.49 1023.16 1022.74 1022.59 1022.29 1021.99 1021.58 1021.08 1020.72 1020.30 1019.91 1019.38 1018.96 1018.56 1018.12 1018.05 1017.82 1017.28 1017.48 1017.33 1014.98 1013.48 1012.53 1011.40 1010.64 1009.92 1009.37 1008.49 1008.18 1008.29 1008.79 1008.28 1007.45 1006.61 1005.11 1003.76 1002.71 1001.75 1001.94 1003.29 1003.32 1004.08 1003.37 1001.92 1000.42 999.68 999.75 998.84 997.94 998.88 998.20 996.91
1023.57 1023.26 1023.39 1022.76 1022.60 1022.30 1022.10 1021.65 1021.23 1020.85 1020.49 1020.19 1019.65 1019.16 1018.79 1018.43 1018.09 1018.06 1017.83 1017.55 1017.74 1017.18 1015.26 1012.88 1010.99 1010.10 1010.01 1009.61 1009.03 1008.94 1008.62 1008.73 1009.37 1010.00 1009.66 1008.64 1007.17 1005.48 1003.84 1002.63 1002.88 1003.33 1004.24 1005.65 1004.30 1003.41 1002.11 1001.19 1001.59 1000.80 999.76 999.09 999.00 998.39
1023.24 1023.21 1022.93 1022.62 1022.09 1022.11 1021.70 1021.32 1020.85 1020.50 1020.20 1019.84 1019.35 1018.97 1018.65 1018.26 1017.94 1017.99 1017.86 1017.71 1017.83 1017.48 1015.96 1012.42 1010.71 1010.16 1009.60 1009.18 1008.64 1008.80 1008.64 1008.86 1009.58 1010.26 1010.54 1009.45 1008.29 1006.69 1005.42 1004.39 1003.81 1003.64 1004.38 1004.77 1005.13 1004.01 1003.16 1002.27 1001.91 1001.59 1002.50 1002.11 999.86 999.20
1023.15 1022.80 1022.48 1022.14 1022.05 1021.61 1021.30 1020.90 1020.46 1020.13 1019.79 1019.42 1019.04 1018.79 1018.47 1018.12 1017.81 1017.70 1017.66 1017.58 1017.68 1017.95 1016.37 1013.78 1012.15 1009.65 1009.05 1008.73 1008.93 1008.97 1009.15 1009.08 1009.54 1010.11 1010.36 1009.50 1008.27 1007.52 1006.37 1005.32 1003.78 1004.18 1003.90 1005.27 1004.16 1004.41 1003.32 1002.82 1002.61 1002.48 1003.27 1003.93 1001.17 1000.08
1022.62 1022.40 1022.09 1021.98 1021.55 1021.21 1020.97 1020.49 1020.10 1019.74 1019.31 1018.96 1018.68 1018.41 1018.20 1017.94 1017.91 1017.67 1017.31 1016.92 1017.32 1017.72 1016.89 1014.69 1011.27 1009.38 1008.74 1009.05 1008.83 1009.25 1009.39 1009.55 1009.87 1009.78 1009.37 1008.95 1008.48 1008.06 1006.89 1004.83 1003.99 1003.49 1003.38 1004.06 1004.79 1005.28 1004.38 1003.99 1003.79 1004.31 1004.33 1003.96 1002.94 1001.45
1022.28 1022.11 1021.80 1021.42 1021.09 1020.85 1020.39 1019.97 1019.66 1019.24 1018.82 1018.47 1018.19 1017.93 1017.73 1017.56 1017.26 1017.20 1017.01 1016.42 1016.94 1017.47 1017.00 1014.94 1011.56 1009.32 1009.27 1008.93 1009.51 1009.71 1009.70 1010.04 1010.30 1010.17 1009.40 1008.54 1007.56 1007.36 1006.63 1005.04 1004.67 1003.82 1003.19 1003.42 1003.78 1003.98 1003.52 1003.64 1003.71 1004.04 1004.46 1003.90 1003.36 1001.97
1021.97 1021.67 1021.31 1020.97 1020.67 1020.29 1019.88 1019.48 1019.08 1018.65 1018.30 1017.99 1017.71 1017.46 1017.19 1017.11 1017.06 1016.29 1016.33 1016.71 1016.65 1017.01 1016.81 1015.22 1011.80 1009.93 1010.30 1010.06 1010.32 1010.64 1010.52 1010.35 1010.33 1009.80 1008.88 1007.99 1007.46 1006.94 1005.75 1004.70 1004.12 1003.53 1003.09 1002.54 1003.15 1003.50 1003.27 1003.23 1003.49 1003.69 1003.70 1005.08 1005.19 1003.30
1021.52 1021.19 1020.87 1020.51 1020.08 1019.72 1019.34 1018.93 1018.44 1018.01 1017.65 1017.44 1017.23 1016.93 1016.77 1016.49 1015.66 1015.84 1016.23 1016.61 1016.56 1016.84 1016.09 1014.88 1013.06 1011.76 1011.11 1011.03 1011.35 1011.44 1011.51 1011.31 1010.89 1010.06 1008.57 1008.42 1007.17 1005.81 1004.47 1004.03 1003.52 1003.24 1002.73 1002.63 1003.05 1003.14 1003.00 1002.67 1002.49 1002.62 1003.73 1005.25 1006.67 1003.93
1020.98 1020.66 1020.33 1019.98 1019.60 1019.19 1018.80 1018.38 1017.91 1017.36 1016.82 1016.82 1016.56 1015.98 1015.12 1015.35 1015.76 1016.04 1016.45 1016.23 1016.32 1016.08 1015.82 1014.34 1012.97 1012.29 1012.44 1012.37 1012.22 1012.26 1011.99 1011.70 1011.08 1009.78 1008.87 1008.08 1006.22 1005.22 1004.04 1003.37 1002.76 1002.76 1002.68 1002.51 1002.43 1002.52 1002.67 1002.46 1002.25 1002.29 1003.19 1003.72 1004.26 1003.11
1020.43 1020.13 1019.85 1019.49 1019.09 1018.68 1018.30 1018.02 1017.56 1016.92 1015.26 1015.47 1015.19 1014.86 1014.72 1015.23 1014.94 1015.10 1014.82 1014.82 1014.55 1014.30 1013.80 1012.36 1011.28 1011.25 1011.95 1012.48 1012.58 1012.56 1011.90 1011.90 1011.11 1009.98 1009.40 1008.12 1006.83 1005.23 1004.45 1003.49 1002.97 1003.07 1002.70 1002.77 1002.59 1002.70 1002.77 1002.79 1003.14 1003.61 1003.52 1003.81 1003.75 1002.74
1019.94 1019.63 1019.34 1019.02 1018.66 1018.32 1018.09 1017.82 1017.34 1016.30 1015.74 1016.54 1016.47 1015.19 1014.23 1014.25 1014.11 1013.58 1012.37 1011.83 1011.86 1010.99 1010.52 1009.97 1009.92 1010.54 1011.30 1012.38 1012.55 1012.28 1012.01 1011.85 1010.81 1010.36 1009.91 1008.64 1007.54 1006.91 1005.85 1004.90 1004.17 1003.52 1002.87 1002.62 1002.64 1002.83 1003.17 1003.37 1003.53 1003.97 1003.71 1003.97 1003.76 1003.32
1019.44 1019.12 1018.80 1018.51 1018.25 1018.01 1017.81 1017.51 1017.30 1017.03 1016.34 1015.09 1015.77 1014.56 1013.73 1012.78 1012.22 1010.92 1009.68 1009.15 1009.03 1008.67 1008.11 1007.97 1008.51 1009.58 1010.99 1011.81 1012.04 1011.90 1011.50 1010.86 1010.64 1010.33 1009.74 1009.13 1008.68 1007.85 1006.92 1005.90 1004.93 1004.04 1003.40 1003.30 1003.29 1003.87 1004.18 1004.36 1004.61 1004.47 1004.06 1004.13 1003.86 1003.93
1018.91 1018.54 1018.20 1017.90 1017.65 1017.46 1017.33 1017.19 1017.08 1016.54 1016.01 1014.72 1013.71 1012.86 1011.36 1010.16 1009.18 1007.79 1007.24 1006.97 1006.73 1006.81 1006.56 1006.59 1006.96 1008.34 1009.18 1010.56 1010.82 1010.70 1010.20 1010.34 1010.18 1010.10 1009.95 1009.40 1009.00 1008.20 1007.30 1006.25 1005.07 1003.79 1003.74 1003.73 1004.20 1004.69 1004.54 1005.08 1005.20 1005.38 1005.03 1005.30 1005.41 1005.79
1018.34 1017.88 1017.49 1016.92 1016.48 1016.60 1016.78 1016.76 1016.75 1016.10 1014.73 1013.46 1012.20 1010.65 1008.97 1008.07 1007.09 1006.57 1006.33 1006.25 1006.11 1006.22 1006.22 1006.18 1006.08 1007.31 1008.30 1009.07 1009.69 1009.81 1009.23 1009.41 1009.13 1009.61 1009.48 1009.20 1008.65 1007.98 1007.22 1006.15 1005.05 1003.84 1003.60 1003.90 1004.69 1005.29 1005.28 1005.71 1005.70 1005.46 1005.56 1005.90 1006.36 1006.67
1017.89 1016.93 1015.92 1016.00 1016.17 1016.26 1016.27 1015.93 1015.56 1014.75 1013.59 1012.38 1010.65 1008.73 1007.82 1006.82 1007.19 1006.52 1006.21 1005.97 1006.29 1006.20 1006.52 1006.44 1006.42 1006.92 1007.37 1008.13 1008.94 1009.26 1009.11 1008.94 1008.96 1009.03 1009.17 1009.31 1008.73 1007.82 1007.16 1006.37 1005.36 1004.66 1004.45 1004.28 1005.19 1006.36 1007.14 1006.68 1006.36 1005.66 1005.86 1006.37 1006.67 1006.80
1017.77 1016.46 1015.94 1016.22 1016.12 1015.62 1015.40 1015.28 1013.63 1013.31 1011.51 1009.96 1008.23 1007.13 1006.50 1005.99 1006.19 1006.22 1006.23 1006.09 1006.27 1006.14 1006.16 1006.57 1006.92 1006.89 1007.32 1008.05 1008.75 1008.96 1008.93 1008.99 1008.76 1009.12 1009.48 1009.59 1009.08 1008.24 1007.54 1006.82 1006.05 1005.20 1004.93 1005.09 1005.35 1005.62 1005.97 1006.24 1006.30 1006.33 1006.48 1006.78 1006.88 1007.17
1016.77 1015.72 1016.05 1016.10 1015.67 1014.36 1013.45 1013.89 1012.03 1010.71 1009.80 1008.44 1007.09 1006.37 1005.99 1005.91 1006.04 1006.12 1006.31 1006.32 1006.31 1006.34 1006.37 1006.82 1006.84 1007.25 1007.51 1008.00 1008.52 1008.26 1008.27 1008.78 1008.97 1009.18 1009.60 1009.68 1009.39 1008.78 1008.28 1007.77 1007.14 1006.43 1005.90 1005.91 1005.95 1006.07 1006.06 1006.48 1006.65 1006.92 1006.94 1007.13 1007.17 1007.30
1016.43 1016.07 1015.95 1016.13 1016.19 1015.21 1012.35 1011.76 1011.09 1009.65 1008.11 1007.19 1006.50 1005.88 1005.86 1005.97 1005.94 1006.29 1006.50 1006.81 1006.93 1006.73 1006.58 1006.50 1007.86 1007.50 1008.41 1008.41 1008.34 1007.96 1008.24 1008.65 1008.94 1009.18 1009.59 1010.02 1009.95 1009.51 1009.13 1008.54 1007.96 1007.50 1007.14 1006.94 1006.92 1006.98 1007.18 1007.13 1007.23 1007.31 1007.02 1007.09 1007.56 1007.65
1016.32 1015.85 1015.52 1015.67 1016.00 1013.90 1011.66 1010.07 1009.64 1008.93 1007.75 1006.58 1006.17 1005.55 1005.59 1006.24 1006.97 1007.51 1007.21 1006.90 1007.26 1006.55 1006.29 1006.44 1006.64 1007.52 1008.39 1008.44 1008.63 1008.67 1008.92 1009.32 1009.17 1009.19 1009.66 1010.28 1010.46 1010.18 1010.06 1009.55 1008.88 1008.31 1007.82 1007.53 1007.77 1007.86 1007.76 1007.81 1008.09 1008.03 1007.96 1008.22 1008.27 1008.70
1014.86 1013.94 1014.33 1014.75 1014.00 1013.20 1010.99 1009.31 1009.13 1008.08 1007.53 1006.41 1005.56 1005.36 1005.32 1005.41 1006.81 1006.98 1006.11 1006.56 1006.81 1006.10 1005.82 1006.18 1006.92 1007.89 1008.74 1009.04 1009.01 1009.19 1009.23 1009.41 1009.46 1009.71 1010.04 1010.20 1010.66 1010.64 1010.37 1009.99 1009.49 1009.20 1008.95 1008.86 1008.62 1008.54 1008.60 1008.64 1008.86 1009.04 1009.11 1009.01 1008.92 1009.25
1014.15 1014.09 1013.66 1013.76 1012.39 1011.76 1010.32 1008.84 1008.20 1007.62 1007.22 1006.34 1005.42 1005.49 1005.18 1005.94 1005.80 1005.14 1005.63 1006.63 1006.71 1006.86 1006.97 1006.63 1007.54 1007.89 1008.91 1009.27 1009.52 1009.77 1009.87 1009.99 1010.00 1010.26 1010.36 1010.54 1010.74 1010.71 1010.59 1010.27 1009.50 1009.16 1009.08 1008.98 1009.17 1009.47 1009.66 1009.96 1009.76 1009.57 1009.57 1009.84 1009.98 1010.33
1014.36 1013.67 1013.01 1012.36 1011.86 1010.85 1009.53 1008.01 1007.77 1007.00 1006.57 1005.41 1004.95 1005.37 1004.94 1004.97 1004.83 1004.92 1005.64 1005.92 1006.46 1006.42 1006.68 1007.49 1008.37 1008.79 1009.22 1009.74 1009.82 1009.95 1010.09 1010.30 1010.32 1010.54 1010.44 1010.64 1010.67 1010.78 1010.62 1010.30 1009.90 1009.52 1009.25 1009.19 1009.05 1009.20 1009.41 1009.76 1009.89 1009.75 1009.64 1009.90 1010.14 1010.79
1014.12 1013.14 1012.22 1011.41 1010.92 1009.75 1008.27 1007.75 1007.02 1006.19 1005.61 1005.11 1004.77 1004.83 1004.89 1005.22 1004.16 1004.62 1005.13 1005.76 1005.74 1006.20 1006.84 1007.81 1008.34 1008.49 1008.88 1009.08 1009.15 1009.64 1010.10 1010.53 1010.32 1010.10 1010.35 1010.18 1010.02 1009.95 1009.85 1009.84 1009.61 1008.92 1009.08 1009.20 1009.28 1009.38 1009.39 1009.73 1009.73 1009.77 1010.13 1010.08 1010.27 1010.44
1013.56 1012.53 1011.53 1010.69 1009.38 1008.75 1007.53 1006.55 1005.67 1005.41 1004.92 1004.86 1004.58 1004.11 1004.46 1004.14 1004.12 1004.46 1005.11 1005.12 1005.21 1005.60 1006.57 1006.90 1007.40 1007.55 1007.70 1008.23 1008.38 1009.20 1009.79 1009.67 1009.48 1009.02 1009.46 1009.79 1009.78 1009.55 1009.32 1009.06 1009.14 1008.95 1009.13 1009.17 1009.62 1009.51 1009.55 1009.50 1009.80 1009.96 1009.92 1010.24 1010.51 1010.78
1012.26 1010.37 1009.70 1007.67 1007.02 1006.72 1006.47 1005.34 1004.86 1005.56 1004.63 1004.20 1003.95 1005.07 1003.28 1003.56 1003.99 1004.93 1005.41 1004.36 1004.77 1005.50 1005.94 1005.99 1006.32 1006.76 1007.31 1007.38 1007.75 1008.23 1008.26 1008.93 1009.03 1008.62 1008.21 1009.01 1008.67 1008.48 1008.43 1008.49 1008.52 1008.21 1008.02 1008.73 1008.84 1009.32 1009.16 1009.46 1009.61 1009.82 1009.83 1010.38 1010.57 1010.68
1010.51 1008.14 1007.00 1006.71 1006.26 1006.25 1005.53 1004.56 1005.14 1003.87 1003.49 1003.58 1003.34 1003.74 1002.90 1003.34 1004.48 1006.16 1006.33 1004.69 1004.92 1005.38 1005.59 1005.66 1005.79 1006.24 1006.28 1006.71 1007.15 1007.26 1007.40 1008.06 1007.93 1007.63 1007.55 1007.36 1007.37 1007.43 1007.94 1007.97 1008.24 1008.76 1008.25 1008.02 1008.21 1008.57 1008.40 1008.87 1008.85 1009.15 1009.51 1010.23 1009.98 1010.17
1008.22 1006.39 1005.45 1005.43 1005.32 1005.19 1004.92 1004.11 1003.62 1003.25 1003.14 1003.32 1003.66 1003.14 1002.72 1002.85 1003.38 1003.65 1003.92 1004.42 1004.83 1005.35 1005.59 1005.61 1005.64 1005.71 1006.17 1006.43 1006.83 1006.72 1007.08 1007.13 1007.28 1007.51 1007.53 1007.12 1006.90 1007.02 1007.32 1007.76 1008.31 1008.87 1008.72 1008.87 1008.83 1009.08 1009.20 1008.64 1008.77 1009.42 1009.47 1009.54 1009.99 1010.44
1006.59 1005.55 1005.15 1004.78 1004.80 1004.39 1003.84 1003.26 1003.78 1003.19 1003.11 1003.78 1003.87 1003.82 1004.42 1003.67 1003.52 1003.39 1003.89 1004.37 1004.87 1005.29 1005.29 1005.31 1005.55 1005.90 1005.98 1006.27 1006.42 1006.35 1006.61 1007.44 1008.16 1007.31 1007.97 1007.32 1007.09 1007.49 1007.37 1007.94 1008.34 1007.97 1008.16 1008.92 1009.47 1009.54 1009.57 1009.51 1009.59 1009.56 1009.34 1009.22 1009.98 1010.72
1005.17 1004.84 1004.41 1004.13 1003.86 1003.61 1004.02 1003.73 1002.66 1002.62 1002.17 1002.25 1002.93 1004.69 1005.03 1004.50 1003.62 1003.68 1003.79 1004.25 1004.65 1004.80 1004.79 1004.91 1005.17 1005.20 1005.24 1005.66 1005.74 1005.65 1005.75 1006.54 1006.82 1006.65 1006.84 1006.71 1006.83 1007.11 1007.40 1007.60 1007.71 1008.18 1008.61 1008.44 1008.68 1009.27 1009.71 1009.60 1009.71 1009.52 1009.47 1009.60 1009.88 1009.92
1004.11 1003.90 1003.89 1003.79 1003.58 1003.20 1003.28 1003.35 1002.56 1001.84 1002.08 1002.12 1002.19 1002.41 1002.96 1002.76 1003.12 1003.33 1003.70 1003.84 1004.14 1004.35 1004.47 1004.50 1004.57 1004.61 1004.84 1005.25 1005.38 1005.91 1005.71 1005.82 1006.25 1006.58 1007.07 1006.60 1006.93 1007.41 1007.66 1007.85 1007.91 1008.18 1008.38 1008.61 1008.78 1008.91 1009.10 1009.28 1009.47 1009.44 1009.65 1009.83 1010.00 1009.97
1003.92 1003.92 1003.98 1003.80 1003.45 1003.23 1003.54 1003.67 1002.51 1002.16 1002.18 1002.17 1002.46 1002.57 1002.35 1003.25 1004.12 1003.30 1003.25 1003.66 1003.80 1003.92 1003.99 1004.09 1003.99 1004.04 1004.31 1004.37 1004.67 1005.27 1005.70 1005.69 1006.12 1006.46 1006.94 1006.74 1007.18 1007.57 1007.65 1007.74 1007.92 1008.14 1008.32 1008.45 1008.54 1008.63 1008.96 1009.03 1009.40 1009.53 1009.67 1010.53 1009.93 1009.97
1003.61 1003.91 1003.65 1003.69 1003.55 1003.55 1003.21 1002.82 1002.79 1003.03 1003.25 1003.31 1003.35 1003.13 1002.48 1002.10 1002.68 1003.07 1002.77 1003.10 1003.36 1003.46 1003.48 1003.88 1003.77 1004.01 1004.42 1004.52 1004.69 1005.26 1005.49 1005.47 1006.20 1006.68 1007.06 1007.54 1007.83 1007.76 1007.73 1007.60 1007.98 1008.24 1008.35 1008.40 1008.55 1008.53 1008.85 1008.86 1009.06 1009.72 1009.76 1009.57 1009.51 1009.72
Wind_Speed
12 12 12 13 14 15 13 15 16 17 17 17 18 17 17 16 13 4 3 3 3 3 16 21 21 14 13 9 9 8 8 5 8 10 10 14 16 17 20 19 20 17 2 14 17 19 25 19 21 15 2 16 16 8
12 13 13 13 14 15 15 15 15 16 17 17 17 16 15 14 12 7 2 3 1 3 11 20 20 21 18 16 12 11 9 5 3 5 4 7 11 14 17 15 8 9 10 8 9 9 15 14 12 9 6 6 13 9
12 13 14 13 14 15 16 15 16 16 17 17 17 16 15 12 9 10 2 1 1 3 9 12 12 11 12 17 15 10 10 6 1 3 4 3 6 10 13 12 3 9 9 6 4 13 23 16 8 12 18 7 6 13
13 14 14 14 14 15 16 15 15 15 16 16 15 15 14 12 9 9 2 0 0 2 4 7 10 12 15 13 15 14 16 7 4 2 5 5 4 10 10 15 15 11 5 3 8 13 18 18 12 7 17 27 7 4
13 14 14 14 16 15 16 15 15 14 15 15 14 13 12 11 8 5 3 3 2 1 4 9 22 21 13 14 12 10 11 13 6 4 5 7 8 10 11 14 17 14 10 10 8 8 6 10 14 19 8 21 25 7
13 14 15 15 16 16 17 15 16 14 15 15 14 13 12 11 4 3 4 5 6 3 3 5 10 9 6 9 8 10 9 6 4 5 6 7 17 8 6 12 16 18 11 8 5 6 7 11 12 14 14 16 17 20
13 15 15 15 16 16 16 15 16 15 14 14 13 13 11 8 6 3 5 4 7 4 2 5 6 1 9 2 2 6 9 4 2 4 6 11 11 6 9 15 18 19 13 1 1 5 9 8 6 9 8 14 17 21
14 14 15 15 16 16 16 15 15 15 15 14 13 12 10 6 8 7 6 7 7 2 2 4 6 3 7 2 2 4 3 2 3 4 4 7 6 2 7 14 17 17 20 12 9 11 14 14 12 16 3 7 23 21
14 14 15 16 16 16 16 16 15 16 16 13 12 11 5 5 3 3 9 8 3 2 2 3 3 5 8 5 4 2 1 2 1 3 4 3 5 8 9 14 15 16 13 9 13 13 16 19 19 13 14 17 18 16
15 14 14 15 16 16 15 14 15 17 17 11 6 5 3 3 15 11 2 3 3 3 3 4 3 5 1 2 2 3 1 2 3 4 3 4 11 18 18 17 14 7 6 12 10 15 13 15 11 15 5 21 27 14
15 13 14 15 16 16 13 13 15 16 14 5 3 1 5 10 4 3 4 4 4 4 5 6 9 7 5 4 3 3 1 1 3 1 3 2 5 8 11 16 9 9 6 9 12 15 15 14 5 5 4 7 14 16
15 13 14 15 15 14 12 11 14 9 6 5 6 6 3 3 4 5 5 5 6 4 5 6 4 3 4 2 2 2 3 2 4 3 3 3 3 12 11 13 13 14 13 12 11 6 10 12 8 10 7 8 7 16
15 13 14 14 14 12 11 11 9 10 13 3 3 3 4 5 4 6 3 0 3 3 6 6 5 4 5 4 3 3 5 5 1 2 2 2 8 9 11 12 15 14 11 8 6 4 4 6 8 10 12 5 8 10
14 14 15 15 15 13 12 10 8 9 6 3 4 5 6 5 5 7 4 7 7 9 8 8 4 5 3 5 3 5 4 3 2 1 2 2 7 9 9 12 14 10 7 6 2 7 7 10 7 8 8 8 10 9
14 16 17 20 18 14 10 10 7 6 4 5 5 5 6 6 10 8 4 5 5 7 9 9 6 2 4 4 3 4 3 1 1 2 2 4 8 5 9 13 13 12 9 5 15 16 13 9 5 4 13 11 9 9
15 20 6 7 5 6 9 12 7 5 3 5 7 9 6 9 4 7 5 5 6 7 8 6 4 4 4 1 1 2 6 2 2 3 5 8 11 7 8 11 12 10 6 8 17 19 8 8 4 7 11 12 11 11
13 5 7 1 8 14 15 6 5 7 6 6 6 9 9 4 6 6 6 5 7 7 4 4 4 3 4 3 2 2 1 4 4 4 4 5 9 8 9 10 12 10 5 5 5 9 14 10 10 9 11 9 10 7
7 6 6 10 12 8 8 6 5 5 7 8 9 5 6 3 5 5 5 2 4 6 5 2 5 2 4 3 3 1 4 3 4 5 3 5 7 10 9 10 10 13 11 7 5 5 8 8 7 6 6 7 7 7
11 13 19 15 8 6 4 6 5 5 7 6 10 5 4 5 2 3 1 3 3 4 7 2 1 2 3 3 4 6 6 6 3 2 4 4 6 7 8 8 6 8 9 10 7 5 6 4 4 3 5 5 4 4
17 21 21 15 7 5 5 3 3 4 6 3 9 5 5 2 4 4 14 6 7 5 0 4 1 2 1 5 6 6 6 5 4 0 2 2 3 5 7 7 7 9 5 5 8 7 5 7 6 6 5 4 7 5
11 3 6 8 7 7 6 2 3 4 6 9 7 4 5 5 6 7 5 3 2 5 3 2 8 7 7 4 6 5 4 5 4 3 3 2 2 2 2 2 3 2 3 6 7 6 7 5 6 6 7 8 8 7
2 4 3 6 5 5 6 6 4 4 4 8 9 6 4 1 7 2 6 1 5 2 4 5 8 5 7 5 5 6 5 6 3 3 3 6 3 0 1 3 4 3 2 2 3 3 3 4 5 1 5 5 7 7
9 5 4 3 4 3 7 6 5 3 4 4 1 5 4 3 3 3 1 3 2 1 6 9 7 6 5 4 3 4 4 4 4 2 3 2 2 1 2 3 4 4 3 2 3 4 4 4 3 3 3 5 5 7
1 4 4 4 6 6 2 4 4 5 4 5 4 5 3 6 2 3 2 2 3 5 7 6 6 6 5 3 6 6 5 2 2 4 5 6 5 3 3 4 5 2 4 1 4 3 3 2 3 5 4 2 4 4
4 5 5 6 5 6 6 6 7 7 6 9 6 6 1 4 3 4 6 5 6 7 6 6 10 5 4 6 6 8 8 4 4 4 3 5 3 3 5 3 4 3 3 4 1 3 5 3 4 4 2 3 3 1
5 6 5 5 4 4 1 5 5 2 8 6 3 5 5 2 4 6 5 4 7 8 6 5 6 7 8 5 7 4 8 7 0 5 5 10 7 5 3 3 3 2 3 7 5 3 3 5 7 7 6 8 7 9
5 7 8 6 4 3 6 3 6 7 3 6 1 6 1 3 5 3 8 3 7 6 4 3 4 4 4 5 4 3 5 9 3 3 3 2 4 7 6 2 4 4 7 2 1 5 4 5 5 4 2 7 4 8
7 6 6 6 5 2 9 8 8 4 4 3 4 4 3 6 7 3 4 6 7 7 5 4 2 4 5 4 3 5 5 6 6 6 2 6 4 5 5 6 6 2 3 7 5 5 9 1 3 8 9 7 7 4
7 8 8 7 8 6 6 4 1 6 7 8 6 7 9 5 4 3 6 7 7 6 6 6 5 5 5 5 5 4 3 9 3 6 5 6 4 2 4 4 1 4 5 7 9 8 9 9 10 8 7 7 8 4
10 8 9 8 9 7 2 8 4 7 2 4 5 4 3 8 2 4 6 7 7 6 5 5 5 5 5 4 5 5 6 11 6 3 3 5 4 5 4 3 3 6 4 3 5 7 2 3 3 5 6 4 3 6
4 3 5 8 8 10 4 7 12 2 2 3 5 4 6 7 6 5 5 5 6 6 6 7 7 6 8 8 2 3 0 6 7 7 6 4 7 6 4 2 2 6 3 4 1 1 3 2 3 3 4 6 1 4
5 8 7 9 9 6 3 10 7 1 5 2 4 1 5 10 7 3 7 6 6 7 5 4 6 5 3 3 6 7 3 5 6 7 2 2 7 5 5 4 4 4 4 5 4 2 4 1 4 5 4 10 9 4
6 7 8 8 8 8 10 10 3 3 4 3 4 7 9 2 5 7 5 7 7 7 6 5 5 2 6 2 8 5 2 5 14 13 14 12 10 8 5 3 7 3 2 2 2 2 1 2 5 7 6 5 1 3
Wind_Direction
333 334 328 327 326 328 325 327 323 326 327 329 333 334 335 336 337 214 280 314 303 284 287 297 314 301 307 329 319 324 315 252 264 255 253 257 262 254 258 259 259 242 251 273 236 255 248 246 257 266 86 351 327 264
329 329 324 322 327 322 319 320 321 324 322 326 328 332 335 333 341 193 271 277 299 244 291 310 294 297 294 299 292 296 278 289 322 304 303 303 272 276 270 260 250 261 269 271 243 250 321 318 353 314 113 327 324 327
327 328 314 320 319 317 312 314 319 319 318 320 327 331 335 330 334 198 254 335 70 282 281 259 270 275 275 258 264 257 274 297 336 319 312 282 274 296 286 291 72 306 340 210 283 239 261 307 354 321 303 196 316 318
323 316 313 315 319 312 308 309 313 313 312 315 324 328 330 328 326 203 225 106 86 299 288 300 320 312 308 289 270 260 268 255 175 68 284 268 258 282 283 303 301 303 120 263 268 275 281 279 284 248 351 325 222 241
312 315 315 318 311 312 308 308 308 305 310 313 318 319 322 322 329 220 229 227 187 249 296 301 297 275 252 248 263 262 288 269 277 228 237 257 274 285 268 270 267 279 272 198 226 298 278 293 348 334 332 293 314 252
315 314 314 308 309 312 307 308 307 303 305 309 310 309 308 304 295 248 236 185 198 169 289 299 329 302 280 242 278 238 256 277 266 308 260 252 249 273 269 265 284 297 286 5 119 180 303 319 338 309 321 317 320 296
314 308 308 310 308 305 306 305 302 300 298 301 302 300 297 279 248 254 349 39 145 144 264 288 277 271 14 303 212 244 238 223 234 244 243 254 262 212 258 267 277 280 277 81 203 286 282 254 284 308 331 328 333 280
303 306 310 308 303 304 304 301 299 297 295 297 298 300 295 252 265 260 165 159 167 176 233 277 278 302 0 312 316 6 333 311 228 258 268 255 261 218 250 257 265 274 283 256 254 264 262 266 235 248 192 35 351 232
298 302 307 307 305 303 301 299 298 294 291 294 296 298 232 227 230 102 125 143 215 281 277 244 283 305 354 12 335 326 81 257 326 269 249 240 223 230 246 250 261 255 276 177 215 256 263 258 258 231 190 158 206 230
301 294 303 307 305 303 301 299 299 296 291 292 262 207 228 85 119 139 154 187 190 202 220 257 228 251 198 287 300 323 216 242 259 236 273 231 257 259 259 266 268 258 301 286 277 270 270 285 296 291 125 191 207 157
303 295 304 309 309 307 301 304 306 312 284 196 238 348 87 158 207 205 218 210 166 224 213 232 237 236 179 211 248 198 226 227 259 284 264 268 289 300 331 301 281 297 252 274 285 282 277 286 60 15 353 88 189 161
304 294 302 308 309 310 309 309 311 288 27 333 297 272 243 212 229 241 222 185 204 242 188 237 247 211 122 146 236 195 259 184 258 138 253 259 339 340 350 346 329 324 296 282 271 348 5 324 80 102 66 358 139 103
300 293 300 303 305 302 300 299 300 295 285 220 243 234 211 202 239 237 241 33 268 219 221 248 251 155 148 183 204 239 227 224 101 234 250 337 326 327 330 334 319 302 264 271 339 9 21 89 87 118 116 254 102 105
296 295 298 295 287 279 279 281 298 304 261 238 237 237 232 211 236 235 294 333 345 335 330 308 245 184 172 186 210 253 209 165 217 267 275 283 304 308 327 303 313 301 65 273 254 357 309 140 134 161 173 176 133 142
299 298 296 286 266 256 250 266 271 254 266 253 251 248 234 257 277 326 350 316 355 340 327 306 302 145 201 236 189 283 160 278 93 218 280 316 308 320 326 317 322 315 180 159 99 79 58 100 95 158 135 137 134 143
312 303 220 175 194 241 266 277 224 229 245 241 237 250 287 270 275 277 348 347 357 336 7 303 325 290 233 254 61 301 334 355 48 25 7 346 334 328 333 338 330 331 71 85 107 104 147 109 222 113 115 135 149 151
305 259 122 41 299 277 264 240 194 219 248 226 241 250 258 302 341 298 337 18 344 316 323 326 287 308 302 40 32 260 53 7 29 53 30 351 336 346 0 1 1 351 57 106 108 123 144 148 134 125 132 143 140 137
247 154 101 0 335 297 195 215 247 225 241 248 273 253 249 297 290 311 250 322 307 341 326 278 247 264 322 345 11 321 95 58 25 66 31 22 352 7 17 11 18 19 28 53 108 121 120 125 120 110 123 145 152 146
286 304 308 314 324 301 237 208 223 255 258 267 262 282 290 295 281 281 68 303 334 274 289 91 314 340 32 321 319 18 27 14 354 36 85 48 3 11 360 354 21 23 31 44 58 69 67 77 97 83 123 124 69 151
274 271 269 270 263 258 265 243 200 255 267 291 285 271 275 67 153 74 288 65 288 292 68 293 202 111 18 25 17 352 6 339 315 269 123 106 4 26 16 10 11 355 19 51 52 11 85 86 67 39 36 43 68 44
286 239 159 189 198 239 281 232 246 242 263 262 269 280 286 14 12 230 235 187 59 311 341 13 90 83 39 37 30 1 6 353 333 4 333 144 130 139 291 287 283 42 53 27 31 35 16 59 70 57 63 58 90 86
228 251 264 197 255 201 253 238 235 256 239 252 273 273 255 229 267 11 58 98 191 86 298 20 47 57 71 49 20 358 9 3 360 55 155 136 137 63 309 321 336 38 82 123 118 109 60 356 8 55 107 93 68 51
293 217 250 227 243 244 257 255 246 239 262 259 242 295 310 291 230 118 8 22 140 66 65 83 87 86 90 84 64 49 25 51 91 114 113 86 105 90 280 274 265 295 182 217 162 174 158 140 202 280 111 117 116 126
355 261 229 240 206 260 263 240 252 245 273 237 248 265 167 207 260 105 208 102 70 102 100 138 164 131 143 132 89 84 121 145 120 111 155 175 177 165 174 230 251 244 74 187 137 159 141 168 178 167 214 226 176 179
241 255 172 252 241 213 233 233 229 212 249 345 306 292 132 247 213 173 193 183 149 131 119 203 158 198 151 134 143 133 161 172 170 127 156 71 330 231 190 214 163 147 150 117 276 141 158 163 71 45 124 132 72 64
239 221 193 246 207 227 223 288 346 338 254 240 81 334 254 303 293 53 331 154 129 129 183 184 172 159 169 173 114 178 153 165 168 303 167 156 211 216 210 144 326 197 199 156 157 117 171 152 176 185 157 133 146 168
241 241 201 229 259 178 254 294 342 276 260 299 107 299 180 335 72 174 260 122 128 144 170 173 154 150 151 136 123 139 133 163 194 197 301 180 224 142 171 140 93 18 327 99 26 184 173 184 198 162 151 10 219 194
248 274 254 211 246 254 250 282 279 232 223 47 299 267 12 38 33 76 119 119 131 139 172 193 200 129 126 144 175 165 172 181 172 103 314 310 52 21 105 99 120 125 32 38 54 11 306 19 144 166 213 182 205 91
242 233 240 237 215 234 243 230 74 312 119 141 245 347 20 35 28 93 112 126 138 156 188 183 154 151 161 164 195 184 167 83 274 297 71 302 114 178 139 109 191 214 131 106 70 65 46 33 19 6 351 354 24 156
232 232 251 233 246 250 285 278 204 214 288 2 82 86 159 260 81 113 132 144 157 186 185 167 170 199 187 145 225 189 199 148 198 203 202 158 136 70 82 98 146 106 217 175 125 125 99 239 184 247 254 35 2 311
256 245 234 237 247 271 175 353 302 349 306 269 306 39 184 167 146 147 152 165 171 178 192 193 196 201 196 199 198 11 311 139 111 74 12 63 97 81 69 124 176 146 144 124 162 339 133 241 212 223 340 337 35 297
221 227 237 251 275 349 358 209 239 283 250 245 23 313 19 43 22 286 156 169 190 200 202 261 206 190 226 210 144 152 225 126 144 124 189 155 105 110 170 114 101 117 149 172 194 119 95 260 85 7 141 207 226 158
185 216 239 228 230 243 250 265 198 198 37 46 5 332 323 327 131 225 150 176 194 206 197 204 260 140 106 323 102 104 215 122 99 109 104 83 60 38 331 147 120 125 151 52 313 137 17 195 145 166 219 268 264 327